Погода в Каменке

Украина / Житомирская область     50°20′24″N   28°35′19″E
темп.,
°C
ветер,
м/с
пор.,
м/с
влажн.,
%
обл.,
%
осадки,
мм/ч
давл.,
гПа
погр.,
м
11 мая, вт
вт1100:00+9вюв47830 0.0 102496
03:00+7вюв33770 0.0 102437
06:00+6в33780 0.0 102437
09:00+12в35610 0.0 1023411
12:00+16всв34480 0.0 1021945
15:00+19св34500 0.0 10201118
18:00+19св45592 0.0 10191223
21:00+13всв47842 0.0 1018102
12 мая, ср
ср1200:00+12всв39940 0.0 1018174
03:00+10в599612 0.0 1017347
06:00+7в511951 0.0 1018385
09:00+9в687366 0.0 1018949
12:00+10в6866100 0.0 10171255
15:00+11вюв596796 0.0 10161272
18:00+12в567379 0.2 10151014
21:00+8в348552 0.2 101462
13 мая, чт
чт1300:00+7вюв3794100 0.0 1013139
03:00+6ююв3895100 0.0 1011165
06:00+5вюв369570 0.0 1011116
09:00+11ююв7116896 0.0 1010683
12:00+11ююв71277100 0.1 1010774
15:00+12юв6127493 0.1 10091091
18:00+16ююв71173100 0.1 10071262
21:00+13ююв51085100 0.3 1008444
14 мая, пт
пт1400:00+11юв51295100 0.7 1008546
03:00+11юв41097100 1.0 1007391
06:00+10ююв3697100 0.1 1007249
09:00+11ю3693100 0.1 1008267
12:00+16ю3473100 0.0 1008680
15:00+19ю456117 0.8 10081303
18:00+18ю3471100 1.6 1008694
21:00+13ю2290100 3.3 100818
15 мая, сб
сб1500:00+12зсз3994100 2.4 1009231
03:00+12зсз4891100 2.4 1009216
06:00+11зсз499399 0.1 1010291
09:00+13зсз697772 0.1 1011545
12:00+17зсз67604 0.0 10121425
15:00+17з576133 0.0 10111433
18:00+17з46679 0.0 1012611
21:00+13зсз228188 0.0 101218